FW2350 Weather Reports


time (UTC)temp
C
wind
direction
speed
KPH
gust
KPH
rain 1hr
cm
rain 24hr
cm
rain mn
cm
humidity
%
barometer
mb
20260506010335 8 74 6.4 17.7 0.00 0.00 0.00 81 1013.5
20260506003327 8 42 9.7 17.7 0.00 0.00 0.00 79 1013.6
20260506000322 8 49 12.9 19.3 0.00 0.00 0.00 79 1013.5
20260505233334 9 40 9.7 17.7 0.00 0.00 0.00 82 1013.4
20260505230344 10 57 11.3 19.3 0.00 0.00 0.00 82 1013.5
20260505223336 10 59 9.7 17.7 0.00 0.00 0.00 81 1013.4
20260505220329 10 19 6.4 17.7 0.00 0.00 0.00 82 1013.2
20260505213325 11 16 12.9 19.3 0.00 0.00 0.00 80 1013.1
20260505210337 11 36 11.3 19.3 0.00 0.00 0.00 73 1013.0
20260505203330 11 355 8.0 14.5 0.00 0.00 0.00 72 1012.9
20260505200325 11 13 6.4 12.9 0.00 0.00 0.00 71 1012.7
20260505193319 12 344 8.0 17.7 0.00 0.00 0.00 69 1012.5
20260505190313 12 9 8.0 16.1 0.00 0.00 0.00 69 1012.3
20260505183324 12 5 9.7 19.3 0.00 0.00 0.00 67 1012.1
20260505180339 13 14 9.7 17.7 0.00 0.00 0.00 64 1012.2
20260505173332 13 44 9.7 14.5 0.00 0.00 0.00 63 1012.2
20260505170327 13 19 9.7 19.3 0.00 0.00 0.00 63 1012.3
20260505163322 14 58 8.0 17.7 0.00 0.00 0.00 63 1012.3
20260505160337 15 58 9.7 16.1 0.00 0.00 0.00 61 1012.2
20260505153330 15 30 9.7 19.3 0.00 0.00 0.00 59 1012.4
20260505150340 15 20 12.9 19.3 0.00 0.00 0.00 60 1012.5
20260505140327 15 29 9.7 16.1 0.00 0.00 0.00 60 1012.6
20260505123330 16 42 8.0 17.7 0.00 0.10 0.00 60 1012.8
20260505120325 15 19 12.9 24.1 0.00 0.10 0.00 60 1012.7
20260505113318 15 30 11.3 25.7 0.00 0.10 0.00 61 1012.9
20260505110313 15 33 11.3 22.5 0.00 0.10 0.00 64 1013.0
20260505100318 13 10 11.3 19.3 0.00 0.10 0.00 69 1013.5
20260505093333 12 351 11.3 20.9 0.00 0.10 0.00 69 1013.5
20260505090327 11 46 11.3 20.9 0.00 0.10 0.00 77 1013.7
20260505083342 11 31 12.9 19.3 0.00 0.10 0.00 79 1013.7
20260505080335 10 13 6.4 16.1 0.00 0.10 0.00 81 1013.9
20260505073329 9 16 9.7 17.7 0.00 0.10 0.00 87 1013.8
20260505070343 8 15 8.0 17.7 0.00 0.10 0.00 93 1013.9
20260505063317 7 21 1.6 6.4 0.00 0.10 0.00 95 1013.9
20260505060327 7 355 1.6 6.4 0.00 0.10 0.00 95 1014.1
20260505053321 6 41 0.0 6.4 0.00 0.10 0.00 95 1014.0
20260505050335 3 29 3.2 6.4 0.00 0.10 0.00 95 1014.1
20260505040322 3 50 0.0 0.0 0.00 0.10 0.00 93 1014.0
20260505033315 3 50 0.0 0.0 0.00 0.10 0.00 94 1013.8
20260505030330 3 50 1.6 1.6 0.00 0.10 0.00 94 1013.9
20260505023324 5 50 0.0 0.0 0.00 0.10 0.00 94 1014.0
20260505020318 4 50 0.0 1.6 0.00 0.10 0.00 94 1014.3
20260505013350 5 50 1.6 3.2 0.00 0.10 0.00 93 1014.4